Tracking 27122 objects as of 25-Mar-2023
HD Live streaming from Space Station
objects crossing your sky now

COSMOS 1275 DEB

Track COSMOS 1275 DEB now!
10-day predictions


NORAD ID: 14406
Int'l Code: 1981-053JE
Perigee: 844.7 km
Apogee: 880.0 km
Inclination: 82.8 °
Period: 102.0 minutes
Semi major axis: 7233 km
RCS: 0.0178 m2 (small)
Launch date: June 4, 1981
Source: Commonwealth of Independent States (former USSR) (CIS)
Launch site: PLESETSK MISSILE AND SPACE COMPLEX (PKMTR)

Note: This is SATELLITE DEBRIS
Your satellite tracking list
Your tracking list is empty




NASA's NSSDC Master Catalog

Two Line Element Set (TLE):
1 14406U 81053JB  23083.72760190  .00007662  00000-0  42269-2 0  9996
2 14406  82.8392 255.8782 0024426 131.9546 239.9948 14.11212434 54683
Source of the keplerian elements: AFSPC